Terug naar catalogus

CZ-6A DEB

ActiefPO
NORAD 61114·DEBRIS·🇨🇳 China

Gelanceerd Aug 6, 2024 vanaf Taiyuan Satellite Launch Center

Loading…

Volgende Passages (komende 24 uur)

TLE

VersSource: Space-Track

Epoch: Sep 14, 2026, 00:00 UTC

1 61114U 24140PG  26257.00053034  .00002940  00000-0  82991-3 0  9998
2 61114  88.9693 259.1000 0046352  50.5972 309.9321 14.44867607108714

Volg CZ-6A DEB in realtime met AllMySat

Download on the App Store